GIOVE-A 1 28922U 05051A 08132.23411115 .00000048 00000-0 10000-3 0 3491 2 28922 56.0509 167.9527 0009221 323.6063 36.3902 1.70188719 14723 GIOVE-B 1 32781U 08020A 08130.31224215 .00000013 00000-0 10000-3 0 150 2 32781 55.9828 203.0639 0023746 217.7319 142.1856 1.70888522 227